Location: De Greiden
(52.9496°N, 5.9137°E)
Time: 00:33:24
(UTC+00:00)

YAOGAN 1 - Pass Details

Date: 24 January 2021
Orbit: 618 x 620 km, 97.9° (Epoch: 26 February)

Event Time Altitude Azimuth Distance (km) Brightness Sun altitude
Rises 18:02:22 0° 162° (SSE) 2,888 5.9 -17.1°
Reaches altitude 10° 18:04:32 10° 162° (SSE) 1,986 5.1 -17.4°
Maximum altitude 18:08:52 87° 75° (ENE) 630 2.5 -18.1°
Drops below altitude 10° 18:13:14 10° 346° (NNW) 2,002 5.2 -18.7°
Sets 18:15:26 0° 346° (NNW) 2,912 6.1 -19.1°
